This is the latest recevied weather packets stored in our database for station/object VK4SSH. If no packets are shown the sender has not sent any weather packets the latest 10 day(s).
| Time | Temp. | Humidity | Pressure | Rain* | Wind** | Luminosity | Snow |
|---|---|---|---|---|---|---|---|
| 1777871129 | 26.11° C | 71% | - | 0 mm | - | - | - |
| 1777870529 | 26.67° C | 67% | - | 0 mm | - | - | - |
| 1777869929 | 26.11° C | 66% | - | 0 mm | - | - | - |
| 1777869329 | 26.11° C | 68% | - | 0 mm | - | - | - |
| 1777868729 | 25.56° C | 67% | - | 0 mm | - | - | - |
| 1777868129 | 25.56° C | 68% | - | 0 mm | - | - | - |
| 1777867529 | 25.56° C | 69% | - | 0 mm | - | - | - |
| 1777866929 | 25.56° C | 68% | - | 0 mm | - | - | - |
| 1777866329 | 25.56° C | 68% | - | 0 mm | - | - | - |
| 1777865729 | 25.56° C | 68% | - | 0 mm | - | - | - |
| 1777865129 | 25.56° C | 69% | - | 0 mm | - | - | - |
| 1777864529 | 25.56° C | 72% | - | 0 mm | - | - | - |
| 1777863929 | 25.56° C | 72% | - | 0 mm | - | - | - |
| 1777863329 | 25° C | 72% | - | 0 mm | - | - | - |
| 1777862729 | 25° C | 72% | - | 0 mm | - | - | - |
| 1777862129 | 24.44° C | 74% | - | 0 mm | - | - | - |
| 1777861529 | 25° C | 73% | - | 0 mm | - | - | - |
| 1777860929 | 25.56° C | 71% | - | 0 mm | - | - | - |
| 1777860329 | 25° C | 70% | - | 0 mm | - | - | - |
| 1777859729 | 24.44° C | 70% | - | 0 mm | - | - | - |
| 1777859129 | 25° C | 71% | - | 0 mm | - | - | - |
| 1777858529 | 25° C | 73% | - | 0 mm | - | - | - |
| 1777857929 | 25° C | 75% | - | 0 mm | - | - | - |
| 1777857329 | 25° C | 75% | - | 0 mm | - | - | - |
| 1777856729 | 25° C | 76% | - | 0 mm | - | - | - |
* Rain latest hour (hover to see other rain measurements)
** Current wind speed in m/s (hover to see current wind gust speed)